Regional Weather Roundup
Issued by NWS Sioux Falls, SD

Home | Current Version | Previous Version | Text Only | Print | Product List | Glossary On
Versions: 1 2 3 4 5 6 7 8 9 10 11 12 13 14 15 16 17 18 19 20 21 22 23 24 25 26 27 28 29 30 31 32 33 34 35 36 37 38 39 40 41 42 43 44 45 46 47 48 49 50
751
ASUS43 KFSD 280010
RWRFSD

WEATHER ROUNDUP FOR SE SOUTH DAKOTA/SW MINNESOTA/NW IOWA
NATIONAL WEATHER SERVICE SIOUX FALLS SD
700 PM CDT TUE SEP 27 2016

NOTE: "FAIR" INDICATES FEW OR NO CLOUDS BELOW 12,000 FEET WITH NO
SIGNIFICANT WEATHER AND OR OBSTRUCTIONS TO VISIBILITY.


SDZ038>040-050-052>070-280100-
SOUTHEAST SOUTH DAKOTA

CITY           SKY/WX    TMP DP  RH WIND       PRES   REMARKS
BROOKINGS      CLEAR     62  39  42 NW9       29.87R
CHAMBERLAIN    CLEAR     76  46  34 N5        29.90S
6HR MIN TEMP:  76; 6HR MAX TEMP:  81;

HURON          CLEAR     69  42  37 N10       29.88R
6HR MIN TEMP:  69; 6HR MAX TEMP:  77;

MADISON        FAIR      64  41  42 N10       29.89R
MITCHELL       CLEAR     72  43  35 N7        29.88R
6HR MIN TEMP:  72; 6HR MAX TEMP:  80;

SIOUX FALLS    PTCLDY    67  45  45 N9        29.86R
6HR MIN TEMP:  67; 6HR MAX TEMP:  75;

WINNER         FAIR      76  44  32 NE7       29.92R
YANKTON        CLEAR     70  48  46 NW8       29.85S
$$

MNZ071-072-080-081-089-090-097-098-280100-
SOUTHWEST MINNESOTA

CITY           SKY/WX    TMP DP  RH WIND       PRES   REMARKS
JACKSON        CLOUDY    64  25  22 NW8       29.83F
LUVERNE        CLEAR     64  37  36 NW7       29.86S
MARSHALL       CLEAR     65  29  25 N10G20    29.85R
6HR MIN TEMP:  65; 6HR MAX TEMP:  70;

MONTEVIDEO     CLOUDY    63  34  34 NE15G22   29.87R
PIPESTONE      CLEAR     66  34  30 N10       29.87R
REDWOOD FALLS  CLOUDY    61  35  37 N9        29.84R
TRACY          PTCLDY    66  32  27 NW13G20   29.85R
WINDOM         CLOUDY    64  28  25 NW10      29.83S
WORTHINGTON    CLOUDY    62  42  47 NW9       29.85S
$$

IAZ001>003-012>014-020>022-031-032-NEZ013-014-SDZ071-280100-
NORTHWEST IOWA

CITY           SKY/WX    TMP DP  RH WIND       PRES   REMARKS
CHEROKEE       CLEAR     67  46  46 NW5       29.84S
DENISON        CLEAR     70  43  37 W8        29.83S
ESTHERVILLE    MOCLDY    65  30  27 NW12      29.82R
LE MARS        CLEAR     70  46  43 NW6       29.85S
ORANGE CITY    CLEAR     68  46  45 NW8       29.85S
SHELDON        CLEAR     66  43  42 N7        29.84R
SIOUX CITY     CLEAR     71  48  43 NW9       29.85F
6HR MIN TEMP:  71; 6HR MAX TEMP:  77;

SPENCER        PTCLDY    67  41  38 NW12G24   29.84R
6HR MIN TEMP:  67; 6HR MAX TEMP:  72;

STORM LAKE     CLEAR     68  43  40 NW9       29.85R
$$

ABBREVIATIONS USED IN REMARKS
   TC - TEMPERATURE IN CELSIUS
  WCI - WIND CHILL INDEX
   HX - HEAT INDEX
  VSB - VISIBILITY





USA.gov is the U.S. government's official web portal to all federal, state and local government web resources and services.